Regional Weather Roundup
Issued by NWS

Home | Current Version | Previous Version | Text Only | Print | Product List | Glossary On
Versions: 1 2 3 4 5 6 7 8 9 10 11 12 13 14 15 16 17 18 19 20 21 22 23 24 25 26 27 28 29 30 31 32 33 34 35 36 37 38 39 40 41 42 43 44 45 46 47 48 49 50
000
ASUS42 KFFC 182303
RWRGA
WEATHER ROUNDUP FOR GEORGIA
NATIONAL WEATHER SERVICE PEACHTREE CITY GA
700 PM EDT WED OCT 18 2017

NOTE: "FAIR" INDICATES FEW OR NO CLOUDS BELOW 12,000 FEET WITH NO
SIGNIFICANT WEATHER AND/OR OBSTRUCTIONS TO VISIBILITY.

* = USE WITH CAUTION. THE STATIONS MARKED WITH AN ASTERISK MAY NOT
REPORT WEATHER SUCH AS PRECIPITATION, FOG, OR THUNDER AND ARE NOT
QUALITY CONTROLLED BY NWS.

THE REMARK "TC" DENOTES TEMPERATURE READING IN DEGREES CELSIUS.

GAZ001>058-190000-
NORTH GEORGIA

CITY           SKY/WX    TMP DP  RH WIND       PRES   REMARKS
ATLANTA        CLEAR     65  41  41 E7        30.26S
ATHENS         CLEAR     58  48  69 E3        30.27S
CHAMBLEE       CLEAR     63  43  48 E3        30.27R
PEACHTREE CITY CLEAR     60  51  72 CALM      30.27R
ROME           CLEAR     64  51  62 CALM      30.25R
WEST ATLANTA   CLEAR     68  43  40 E5        30.26R
GAINESVILLE    CLEAR     62  45  53 E5        30.30R
CARTERSVILLE   CLEAR     56  53  90 CALM      30.26S


CITY           SKY/WX    TMP DP  RH WIND       PRES   REMARKS
DALTON*        CLEAR     61  52  72 CALM      30.27S
LAWRENCEVILLE* CLEAR     62  45  53 CALM      30.28S
MARIETTA       CLEAR     63  44  49 NE3       30.25F
KENNESAW*      CLEAR     66  43  43 E7        30.27S
CANTON*        CLEAR     66  46  48 CALM      30.29R
$$

GAZ059>098-102>109-190000-
CENTRAL GEORGIA

CITY           SKY/WX    TMP DP  RH WIND       PRES   REMARKS
AUGUSTA-BUSH   CLEAR     63  47  55 CALM      30.26R
AUGUSTA-DANIEL CLEAR     69  39  33 NE6       30.28R
COLUMBUS       CLEAR     71  42  35 E6        30.22R
MACON          CLEAR     64  43  46 E5        30.25R
ROBINS AFB     CLEAR     65  50  58 CALM      30.24R


CITY           SKY/WX    TMP DP  RH WIND       PRES   REMARKS
LAGRANGE*      CLEAR     67  47  47 CALM      30.24S
SYLVANIA*      CLEAR     67  56  69 E3        30.25R
MILLEDGEVILLE* CLEAR     68  46  45 NE3       30.26S
$$

GAZ099>101-110>166-190000-
SOUTH GEORGIA

CITY           SKY/WX    TMP DP  RH WIND       PRES   REMARKS
SAVANNAH       PTCLDY    71  60  68 N6        30.23R
VALDOSTA       CLEAR     73  61  65 NE6       30.18S
ALMA           CLEAR     70  59  68 CALM      30.21R
ST SIMONS      MOCLDY    72  65  78 NE14G22   30.19R
FT STEWART     CLEAR     69  59  69 NE3       30.20S
ALBANY         CLEAR     73  53  49 NE8       30.21S
HUNTER AFB     CLEAR     69  62  78 E6        30.20R
MOODY AFB      CLEAR     71  59  64 NE6       30.17S
BRUNSWICK      MOCLDY    70  63  78 NE12G17   30.21S


CITY           SKY/WX    TMP DP  RH WIND       PRES   REMARKS
BAINBRIDGE*    CLEAR     75  61  60 NE6       30.18S
MOULTRIE*      CLEAR     72  57  60 CALM      30.19S
VIDALIA*       CLEAR     68  54  60 NE5       30.23S
WAYCROSS*      CLEAR     70  57  62 E3        30.20S
DOUGLAS*       CLEAR     72  55  56 NE6       30.22S
$$




USA.gov is the U.S. government's official web portal to all federal, state and local government web resources and services.